Regional Weather Roundup
Issued by NWS

Home | Current Version | Previous Version | Graphics & Text | Print | Product List | Glossary On
Versions: 1 2 3 4 5 6 7 8 9 10 11 12 13 14 15 16 17 18 19 20 21 22 23 24 25 26 27 28 29 30 31 32 33 34 35 36 37 38 39 40 41 42 43 44 45 46 47 48 49 50
000
ASUS43 KOAX 270510
RWRNE

WEATHER ROUNDUP FOR NEBRASKA
NATIONAL WEATHER SERVICE OMAHA NE
1200 AM CDT WED AUG 27 2014

NOTES: SATELLITE DATA IS BEING USED TO AUGMENT CLOUD COVER ABOVE
       12000 FEET.
       "FAIR" INDICATES FEW OR NO CLOUDS BELOW 12,000 FEET WITH NO
       SIGNIFICANT WEATHER AND/OR OBSTRUCTIONS TO VISIBILITY.

  * THESE STATIONS DO NOT REPORT WEATHER SUCH AS RAIN...SNOW OR FOG.

NEZ001>004-019>022-054>056-270600-
NEBRASKA PANHANDLE

CITY           SKY/WX    TMP DP  RH WIND       PRES   REMARKS
SCOTTSBLUFF    MOCLDY    64  57  78 E9        30.13R
ALLIANCE       MOCLDY    69  62  78 SE13      30.15S
CHADRON        MOCLDY    66  60  81 N3        30.12F
KIMBALL        MOCLDY    63  55  76 SE5       30.19S
SIDNEY         CLOUDY    68  61  78 SE7       30.18S
$$

NEZ057>060-069>072-079>082-270600-
SOUTHWEST NEBRASKA

CITY           SKY/WX    TMP DP  RH WIND       PRES   REMARKS
NORTH PLATTE   MOCLDY    67  65  93 E7        30.14F
IMPERIAL       CLOUDY    70  65  84 SE8       30.17R
LEXINGTON      CLOUDY    71  69  92 E9        30.14S
MCCOOK         CLOUDY    72  68  87 E9        30.11S
OGALLALA       CLOUDY    67  63  84 E8        30.15F
$$

NEZ005>010-023>029-035>040-094-270600-
NORTH CENTRAL NEBRASKA

CITY           SKY/WX    TMP DP  RH WIND       PRES   REMARKS
VALENTINE      CLOUDY    69  64  84 S6        30.12S
AINSWORTH      MOCLDY    66  64  94 SE7       30.15R
BROKEN BOW     MOCLDY    69  66  90 E6        30.16R
O`NEILL        MOCLDY    67  65  94 SE9       30.16S
ORD            MOCLDY    67  66  97 SE7       30.15S
THEDFORD       PTCLDY    68  64  87 SE8       30.16S
$$

NEZ041-046>049-061>064-073>077-083>087-270600-
SOUTH CENTRAL NEBRASKA

CITY           SKY/WX    TMP DP  RH WIND       PRES   REMARKS
GRAND ISLAND   PTCLDY    69  66  90 E6        30.15R FOG
AURORA         PTCLDY    67  67 100 E5        30.14S FOG
HASTINGS       PTCLDY    69  65  86 E7        30.13S
HEBRON         PTCLDY    72  66  82 E5        30.11S
HOLDREGE       CLOUDY    70  68  94 E6        30.13S
KEARNEY *      MOCLDY    70  66  88 NE9       30.15R
YORK           MOCLDY    68 N/A N/A E6        30.14S
$$

NEZ011>018-030>034-042>045-270600-
NORTHEAST NEBRASKA

CITY           SKY/WX    TMP DP  RH WIND       PRES   REMARKS
NORFOLK        PTCLDY    65  62  90 E3        30.16S
ALBION         PTCLDY    66  63  89 SE3       30.16F
BLAIR          PTCLDY    69  66  90 NE6       30.14R
FREMONT        PTCLDY    71  65  82 NE5       30.14S
TEKAMAH        PTCLDY    66  64  93 NW5       30.14R
WAYNE          MOCLDY    63  62  94 CALM      30.17R
$$

NEZ050>053-065>068-078-088>093-270600-
SOUTHEAST NEBRASKA

CITY           SKY/WX    TMP DP  RH WIND       PRES   REMARKS
LINCOLN        PTCLDY    69  66  90 NE5       30.13R
OMAHA EPPLEY   MOCLDY    71  65  81 E6        30.12S
BEATRICE       PTCLDY    72  68  89 E3        30.10S
FALLS CITY     CLEAR     72  70  93 E6        30.09S
NEBRASKA CITY  PTCLDY    69  69 100 E3        30.11S
PLATTSMOUTH    CLEAR     70  66  87 CALM      30.13R
$$

NEZ044-045-051>053-067-270600-
OMAHA AREA

CITY           SKY/WX    TMP DP  RH WIND       PRES   REMARKS
OMAHA EPPLEY   MOCLDY    71  65  81 E6        30.12S
BLAIR          PTCLDY    69  66  90 NE6       30.14R
FREMONT        PTCLDY    71  65  82 NE5       30.14S
MILLARD        PTCLDY    73  67  82 SE5       30.12S
OFFUTT AFB     PTCLDY    70  69  99 NE5       30.12R
PLATTSMOUTH    CLEAR     70  66  87 CALM      30.13R
WAHOO          FAIR      67  64  90 N3        30.14R
$$


USA.gov is the U.S. government's official web portal to all federal, state and local government web resources and services.